�N����,����,�~����,�C��,���x,�C��,����,���ϕ���,�ő�u�ԕ���,�ő厞����,���˗�,�I�_���x,�n�����x,�ő啗���N��,DTYPE
"21/10/13","00:10",0.0,21.4,85.9,1017.1,320.2,1.7,3.4,333.2,0.00,19.0,23.4,"00:02:56",1
"21/10/13","00:20",0.0,21.4,86.0,1017.1,317.5,1.5,2.5,342.6,0.00,19.0,23.5,"00:16:24",1
"21/10/13","00:30",0.0,21.4,86.1,1017.1,319.4,2.0,4.7,345.3,0.00,19.0,23.5,"00:27:36",1
"21/10/13","00:40",0.0,21.3,86.1,1017.3,322.0,1.8,3.3,350.1,0.00,18.9,23.1,"00:39:04",1
"21/10/13","00:50",0.0,21.3,86.2,1016.8,321.6,2.1,3.7,331.5,0.00,18.9,23.4,"00:40:16",1
"21/10/13","01:00",0.0,21.3,86.3,1017.1,320.0,2.1,3.5,322.0,0.00,19.0,23.2,"00:55:52",1
"21/10/13","01:10",0.0,21.3,86.4,1016.8,323.4,2.0,3.5,328.8,0.00,19.0,23.2,"01:06:00",1
"21/10/13","01:20",0.0,21.3,86.5,1016.8,325.7,2.1,3.6,328.2,0.00,19.0,23.1,"01:11:52",1
"21/10/13","01:30",0.0,21.2,86.7,1017.3,318.8,1.8,3.9,327.2,0.00,18.9,23.3,"01:21:28",1
"21/10/13","01:40",0.0,21.2,86.9,1017.5,306.5,1.3,2.4,282.4,0.00,19.0,23.4,"01:30:16",1
"21/10/13","01:50",0.0,21.2,86.9,1017.1,325.8,2.0,3.7,329.1,0.00,19.0,23.1,"01:43:12",1
"21/10/13","02:00",0.0,21.1,87.0,1017.5,317.2,1.6,2.9,344.7,0.00,18.9,23.0,"01:50:56",1
"21/10/13","02:10",0.0,21.0,87.2,1017.1,335.1,1.7,3.1,341.1,0.00,18.8,23.2,"02:02:48",1
"21/10/13","02:20",0.0,20.9,87.3,1017.5,324.2,1.3,2.9,340.8,0.00,18.8,23.1,"02:10:40",1
"21/10/13","02:30",0.0,20.9,87.7,1017.3,315.4,1.6,2.9,328.1,0.00,18.8,23.0,"02:25:52",1
"21/10/13","02:40",0.0,20.9,87.8,1017.3,322.0,2.1,3.9,344.5,0.00,18.8,23.2,"02:36:08",1
"21/10/13","02:50",0.0,21.0,87.9,1017.3,320.3,2.0,4.0,329.9,0.00,19.0,23.1,"02:48:24",1
"21/10/13","03:00",0.0,21.0,87.8,1017.3,334.9,2.2,3.9,340.6,0.00,18.9,23.2,"02:51:36",1
"21/10/13","03:10",0.0,21.0,87.9,1017.1,319.9,1.6,2.7,336.1,0.00,19.0,23.2,"03:01:12",1
"21/10/13","03:20",0.0,20.9,88.0,1017.1,313.6,1.5,2.6,340.3,0.00,18.9,23.1,"03:18:48",1
"21/10/13","03:30",0.0,21.0,88.1,1017.1,320.9,1.7,3.2,339.5,0.00,19.0,23.0,"03:22:32",1
"21/10/13","03:40",0.0,21.0,88.1,1016.8,327.2,1.7,2.5,315.4,0.00,19.0,23.0,"03:34:24",1
"21/10/13","03:50",0.0,21.1,88.1,1017.3,319.5,1.6,2.4,338.9,0.00,19.1,23.2,"03:47:04",1
"21/10/13","04:00",0.0,21.1,88.1,1017.3,318.4,1.7,2.9,344.6,0.00,19.1,22.9,"03:55:20",1
"21/10/13","04:10",0.0,21.1,88.1,1017.3,328.4,2.0,3.5,339.3,0.00,19.1,23.0,"04:05:44",1
"21/10/13","04:20",0.0,21.1,88.1,1017.1,323.3,1.8,2.8,337.6,0.00,19.1,23.0,"04:11:12",1
"21/10/13","04:30",0.0,21.1,88.2,1017.1,316.4,1.8,3.6,335.0,0.00,19.1,22.8,"04:28:56",1
"21/10/13","04:40",0.0,21.1,88.3,1017.3,320.2,1.6,4.4,334.6,0.00,19.1,22.9,"04:32:48",1
"21/10/13","04:50",0.0,21.0,88.3,1017.5,315.9,1.5,2.6,344.7,0.00,19.0,22.9,"04:46:24",1
"21/10/13","05:00",0.0,21.1,88.4,1017.5,328.4,1.8,2.9,338.2,0.00,19.1,22.8,"04:55:36",1
"21/10/13","05:10",0.0,21.1,88.4,1017.5,324.6,1.8,2.7,341.0,0.00,19.1,23.0,"05:01:28",1
"21/10/13","05:20",0.0,21.1,88.4,1017.3,307.5,1.3,2.1,314.9,0.00,19.1,22.7,"05:14:24",1
"21/10/13","05:30",0.0,21.2,88.4,1017.8,308.4,1.1,2.2,320.9,0.00,19.2,23.0,"05:29:52",1
"21/10/13","05:40",0.0,21.2,88.5,1017.3,324.4,1.3,1.9,332.9,0.00,19.3,22.8,"05:33:12",1
"21/10/13","05:50",0.0,21.1,88.6,1017.3,323.9,2.0,3.6,340.9,0.00,19.2,22.9,"05:44:16",1
"21/10/13","06:00",0.0,21.1,88.8,1017.3,313.2,1.5,2.9,329.1,0.00,19.2,22.9,"05:50:02",1
"21/10/13","06:10",0.0,21.1,88.8,1017.5,328.6,1.7,3.4,341.3,0.00,19.2,22.7,"06:08:24",1
"21/10/13","06:20",0.0,21.1,88.9,1017.5,325.2,2.1,3.5,342.6,0.00,19.2,22.9,"06:13:20",1
"21/10/13","06:30",0.0,21.1,89.0,1017.5,332.7,1.5,3.2,333.7,0.00,19.3,22.7,"06:20:32",1
"21/10/13","06:40",0.0,21.1,89.1,1017.5,305.1,1.0,2.0,323.0,0.00,19.3,22.9,"06:39:04",1
"21/10/13","06:50",0.0,21.1,89.1,1017.8,317.5,1.6,2.4,326.1,0.00,19.3,22.9,"06:41:20",1
"21/10/13","07:00",0.0,21.2,89.1,1017.8,332.3,1.7,3.1,338.4,0.00,19.4,22.9,"06:59:52",1
"21/10/13","07:10",0.0,21.3,89.0,1017.3,320.3,1.6,2.8,317.2,0.00,19.5,22.8,"07:00:40",1
"21/10/13","07:20",0.0,21.4,88.9,1017.5,323.6,1.5,3.6,328.1,0.00,19.5,22.9,"07:11:20",1
"21/10/13","07:30",0.0,21.7,88.8,1017.5,307.5,0.8,1.3,317.3,0.03,19.8,23.0,"07:25:04",1
"21/10/13","07:40",0.0,21.7,88.4,1017.5,318.9,1.7,3.3,327.0,0.04,19.7,22.7,"07:38:56",1
"21/10/13","07:50",0.0,22.0,88.1,1017.3,319.4,1.6,2.7,332.3,0.06,20.0,22.7,"07:42:32",1
"21/10/13","08:00",0.0,22.2,87.6,1017.5,310.0,1.2,2.0,315.9,0.06,20.1,22.7,"07:50:24",1
"21/10/13","08:10",0.0,22.1,87.1,1017.5,323.8,1.7,3.2,341.0,0.04,19.9,23.0,"08:07:12",1
"21/10/13","08:20",0.0,22.3,86.9,1017.3,332.1,1.2,3.3,337.9,0.06,20.1,22.7,"08:10:24",1
"21/10/13","08:30",0.0,22.4,86.6,1017.3,325.6,1.5,3.1,334.0,0.09,20.1,22.7,"08:23:12",1
"21/10/13","08:40",0.0,22.6,86.0,1017.3,320.9,1.3,2.2,314.7,0.09,20.2,22.8,"08:34:56",1
"21/10/13","08:50",0.0,22.5,85.5,1017.1,310.4,1.2,2.8,350.2,0.05,20.0,22.9,"08:44:00",1
"21/10/13","09:00",0.0,22.7,85.1,1017.1,298.3,1.0,1.9,322.7,0.07,20.1,22.7,"08:50:40",1
"21/10/13","09:10",0.0,22.9,84.7,1017.1,309.9,0.7,1.8,340.6,0.06,20.2,22.7,"09:06:00",1
"21/10/13","09:20",0.0,23.3,84.0,1017.1,314.4,0.8,2.2,338.5,0.14,20.5,22.8,"09:16:24",1
"21/10/13","09:30",0.0,23.5,83.1,1017.1,297.5,0.8,1.8,308.2,0.12,20.5,23.0,"09:25:20",1
"21/10/13","09:40",0.0,23.9,82.1,1016.8,327.0,1.1,2.4,344.5,0.17,20.7,22.9,"09:39:04",1
"21/10/13","09:50",0.0,24.2,80.7,1016.6,300.8,1.0,2.2,345.8,0.17,20.7,22.8,"09:45:36",1
"21/10/13","10:00",0.0,24.5,79.1,1016.6,302.3,1.1,2.4,335.3,0.22,20.7,22.9,"09:57:12",1
"21/10/13","10:10",0.0,24.4,78.7,1016.6,288.7,1.1,2.4,241.1,0.12,20.5,23.1,"10:01:28",1
"21/10/13","10:20",0.0,24.3,78.7,1016.1,299.9,1.2,4.2,336.9,0.13,20.4,23.1,"10:18:56",1
"21/10/13","10:30",0.0,24.1,78.2,1016.6,332.5,1.7,3.6,349.3,0.12,20.1,22.7,"10:25:44",1
"21/10/13","10:40",0.0,24.2,77.5,1015.9,329.8,1.5,3.3,336.1,0.14,20.1,22.9,"10:38:16",1
"21/10/13","10:50",0.0,24.5,77.1,1015.9,331.5,1.1,2.9,343.0,0.15,20.3,23.1,"10:44:16",1
"21/10/13","11:00",0.0,24.8,76.4,1015.9,313.8,1.7,3.7,326.1,0.19,20.4,23.1,"10:56:48",1
"21/10/13","11:10",0.0,25.6,76.2,1015.4,294.4,1.3,3.2,349.5,0.39,21.1,23.2,"11:00:32",1
"21/10/13","11:20",0.0,25.9,74.4,1015.2,274.0,1.1,2.7,237.8,0.38,21.0,23.1,"11:15:04",1
"21/10/13","11:30",0.0,26.7,72.8,1014.5,285.2,1.1,3.1,226.1,0.48,21.5,23.0,"11:27:44",1
"21/10/13","11:40",0.0,27.2,69.3,1015.2,329.6,1.5,3.4,342.8,0.55,21.1,23.2,"11:35:44",1
"21/10/13","11:50",0.0,27.0,67.1,1015.4,346.6,1.5,3.5,350.7,0.34,20.4,23.2,"11:40:16",1
"21/10/13","12:00",0.0,26.5,69.6,1015.2,309.2,1.1,3.2,258.4,0.21,20.5,23.2,"11:57:04",1
"21/10/13","12:10",0.0,26.3,70.4,1014.5,282.0,1.3,3.7,238.7,0.27,20.5,23.2,"12:07:04",1
"21/10/13","12:20",0.0,27.1,69.1,1014.5,277.1,1.1,2.5,346.5,0.46,21.0,23.3,"12:18:16",1
"21/10/13","12:30",0.0,26.6,68.9,1014.7,307.5,1.0,2.6,351.5,0.14,20.5,23.4,"12:27:04",1
"21/10/13","12:40",0.0,26.2,69.8,1014.0,280.2,1.1,2.4,346.8,0.12,20.3,23.3,"12:38:00",1
"21/10/13","12:50",0.0,26.0,70.6,1014.0,298.6,1.1,2.5,328.9,0.10,20.3,23.4,"12:48:16",1
"21/10/13","13:00",0.0,25.1,72.0,1014.2,345.1,2.3,4.3,335.0,0.08,19.7,23.7,"12:59:28",1
"21/10/13","13:10",0.0,24.7,73.5,1014.2,350.9,2.3,5.6,346.0,0.11,19.7,23.7,"13:04:08",1
"21/10/13","13:20",0.0,24.7,74.2,1014.5,342.1,2.3,4.7,327.4,0.15,19.8,23.7,"13:12:00",1
"21/10/13","13:30",0.0,24.9,74.1,1014.0,345.7,2.2,4.3,343.2,0.16,20.0,23.6,"13:28:24",1
"21/10/13","13:40",0.0,25.1,72.9,1013.8,357.7,2.0,4.3,329.7,0.21,19.9,23.6,"13:32:08",1
"21/10/13","13:50",0.0,25.1,72.3,1013.8,2.4,1.6,4.0,47.4,0.13,19.8,23.7,"13:49:04",1
"21/10/13","14:00",0.0,24.7,72.4,1013.8,356.4,2.0,3.7,350.7,0.09,19.4,23.7,"13:54:48",1
"21/10/13","14:10",0.0,24.7,72.8,1013.8,352.2,2.0,4.5,324.9,0.12,19.5,23.7,"14:09:52",1
"21/10/13","14:20",0.0,24.5,73.0,1013.8,356.4,2.0,4.2,349.2,0.11,19.4,23.7,"14:13:04",1
"21/10/13","14:30",0.0,24.3,73.3,1014.0,346.4,2.3,4.7,348.9,0.12,19.3,23.7,"14:23:12",1
"21/10/13","14:40",0.0,24.1,73.0,1014.0,338.2,2.7,5.5,323.7,0.09,19.0,23.6,"14:35:44",1
"21/10/13","14:50",0.0,24.0,73.2,1014.2,357.0,2.1,4.4,354.3,0.08,18.9,23.6,"14:40:02",1
"21/10/13","15:00",0.0,24.1,73.3,1013.8,352.6,1.7,3.9,338.0,0.08,19.1,23.7,"14:56:48",1
"21/10/13","15:10",0.0,24.0,73.5,1014.0,346.9,1.6,4.1,339.5,0.06,19.0,23.7,"15:01:44",1
"21/10/13","15:20",0.0,24.0,74.1,1014.0,346.4,1.6,3.4,347.6,0.04,19.1,23.7,"15:10:48",1
"21/10/13","15:30",0.0,24.0,74.8,1014.0,348.4,1.6,3.2,301.0,0.06,19.3,23.7,"15:23:12",1
"21/10/13","15:40",0.0,24.3,74.5,1014.2,351.2,1.6,3.4,347.5,0.10,19.5,23.7,"15:39:36",1
"21/10/13","15:50",0.0,24.3,73.8,1014.5,357.3,2.0,4.1,343.3,0.06,19.4,23.7,"15:42:56",1
"21/10/13","16:00",0.0,24.1,73.9,1014.5,358.8,1.7,4.0,334.4,0.06,19.2,23.7,"15:57:36",1
"21/10/13","16:10",0.0,23.9,73.5,1014.7,347.5,2.2,4.7,327.6,0.06,18.9,23.6,"16:04:00",1
"21/10/13","16:20",0.0,23.8,73.0,1014.5,343.6,1.6,3.4,340.8,0.03,18.7,23.7,"16:13:44",1
"21/10/13","16:30",0.0,23.8,72.9,1014.5,359.1,2.0,5.4,344.5,0.03,18.7,23.6,"16:26:48",1
"21/10/13","16:40",0.0,23.6,73.2,1014.5,352.2,1.7,4.2,341.7,0.02,18.6,23.5,"16:31:44",1
"21/10/13","16:50",0.0,23.3,73.6,1014.5,335.9,2.5,5.0,334.3,0.01,18.4,23.6,"16:44:00",1
"21/10/13","17:00",0.0,23.1,73.8,1014.5,337.2,2.5,5.4,339.3,0.00,18.2,23.7,"16:59:28",1
"21/10/13","17:10",0.0,22.9,74.1,1014.5,345.3,2.3,5.1,336.9,0.00,18.1,23.7,"17:03:28",1
"21/10/13","17:20",0.0,22.8,74.4,1014.5,341.0,2.5,5.1,336.3,0.00,18.1,23.7,"17:17:36",1
"21/10/13","17:30",0.0,22.6,74.7,1014.7,339.4,2.7,5.9,343.5,0.00,17.9,23.5,"17:28:24",1
"21/10/13","17:40",0.0,22.6,74.7,1014.5,338.4,2.0,4.5,336.9,0.00,17.9,23.4,"17:30:16",1
"21/10/13","17:50",0.0,22.5,74.6,1014.9,323.4,2.3,5.2,340.9,0.00,17.8,23.5,"17:48:16",1
"21/10/13","18:00",0.0,22.4,74.5,1014.7,325.2,2.6,4.7,337.3,0.00,17.7,23.4,"17:52:32",1
"21/10/13","18:10",0.0,22.4,74.7,1014.9,325.8,2.3,5.6,330.0,0.00,17.7,23.4,"18:08:40",1
"21/10/13","18:20",0.0,22.3,75.0,1014.9,334.1,2.7,5.4,351.3,0.00,17.7,23.2,"18:18:56",1
"21/10/13","18:30",0.0,22.3,75.6,1015.2,330.0,2.2,5.5,328.4,0.00,17.8,23.4,"18:21:52",1
"21/10/13","18:40",0.0,22.2,76.1,1015.2,335.4,2.7,5.0,336.3,0.00,17.8,23.5,"18:38:08",1
"21/10/13","18:50",0.0,22.2,76.4,1014.9,332.3,2.3,4.7,341.1,0.00,17.9,23.1,"18:41:44",1
"21/10/13","19:00",0.0,22.1,76.7,1014.9,338.6,2.5,5.4,344.3,0.00,17.9,23.3,"18:58:56",1
"21/10/13","19:10",0.0,22.0,76.9,1014.9,332.5,2.7,5.9,347.4,0.00,17.8,23.2,"19:00:24",1
"21/10/13","19:20",0.0,22.0,77.0,1015.2,333.0,2.6,6.0,348.1,0.00,17.8,23.2,"19:12:08",1
"21/10/13","19:30",0.0,22.0,77.0,1015.2,333.2,2.7,6.5,346.3,0.00,17.8,23.3,"19:26:00",1
"21/10/13","19:40",0.0,21.9,77.1,1015.4,330.1,1.6,4.4,309.0,0.00,17.7,23.3,"19:31:04",1
"21/10/13","19:50",0.0,21.8,77.1,1015.6,335.1,1.8,4.4,329.6,0.00,17.7,23.1,"19:46:16",1
"21/10/13","20:00",0.0,21.8,76.9,1015.6,328.5,1.8,3.4,339.9,0.00,17.6,23.1,"19:54:16",1
"21/10/13","20:10",0.0,21.8,76.6,1015.4,321.9,1.6,3.5,336.5,0.00,17.5,23.0,"20:06:24",1
"21/10/13","20:20",0.0,21.8,76.3,1015.6,332.0,1.5,3.5,333.5,0.00,17.5,23.1,"20:12:16",1
"21/10/13","20:30",0.0,21.8,76.3,1015.6,326.6,1.2,3.4,343.0,0.00,17.5,23.2,"20:24:24",1
"21/10/13","20:40",0.0,21.7,76.2,1015.4,332.9,2.0,3.5,357.4,0.00,17.4,23.0,"20:32:16",1
"21/10/13","20:50",0.0,21.7,76.3,1015.6,333.0,1.3,2.7,333.5,0.00,17.4,23.0,"20:49:20",1
"21/10/13","21:00",0.0,21.5,76.2,1015.9,325.0,1.5,3.1,343.9,0.00,17.2,23.0,"20:50:32",1
"21/10/13","21:10",0.0,21.5,76.2,1015.2,328.9,1.5,3.7,324.8,0.00,17.2,23.0,"21:00:24",1
"21/10/13","21:20",0.0,21.4,76.6,1015.4,326.1,1.2,2.4,317.5,0.00,17.2,23.0,"21:18:56",1
"21/10/13","21:30",0.0,21.4,76.9,1015.4,333.4,1.3,2.9,337.8,0.00,17.2,23.0,"21:26:48",1
"21/10/13","21:40",0.0,21.3,77.3,1015.2,302.0,1.0,2.2,327.6,0.00,17.2,22.8,"21:30:56",1
"21/10/13","21:50",0.0,21.2,78.1,1015.4,317.5,1.1,2.6,337.4,0.00,17.3,23.0,"21:45:52",1
"21/10/13","22:00",0.0,21.1,78.7,1015.4,282.8,0.6,1.1,329.5,0.00,17.3,22.9,"21:50:02",1
"21/10/13","22:10",0.0,20.8,79.5,1015.6,312.0,0.7,1.6,324.0,0.00,17.2,22.9,"22:00:40",1
"21/10/13","22:20",0.0,20.6,80.4,1015.4,299.5,0.8,1.6,268.9,0.00,17.1,22.8,"22:18:56",1
"21/10/13","22:30",0.0,20.4,81.0,1015.4,307.5,1.1,2.2,323.3,0.00,17.1,23.0,"22:29:44",1
"21/10/13","22:40",0.0,20.4,81.3,1015.4,296.6,1.0,2.4,261.6,0.00,17.1,22.8,"22:30:48",1
"21/10/13","22:50",0.0,20.4,81.6,1015.4,312.4,1.3,2.1,339.6,0.00,17.2,23.0,"22:47:36",1
"21/10/13","23:00",0.0,20.3,82.0,1015.2,304.0,1.2,2.0,322.6,0.00,17.2,22.7,"22:56:56",1
"21/10/13","23:10",0.0,20.1,82.3,1015.2,303.6,1.1,1.8,316.1,0.00,17.0,22.7,"23:00:02",1
"21/10/13","23:20",0.0,20.0,82.8,1015.2,317.1,1.3,2.2,317.3,0.00,17.0,22.8,"23:19:12",1
"21/10/13","23:30",0.0,20.0,82.9,1015.2,300.7,1.2,2.5,325.1,0.00,17.0,22.7,"23:22:08",1
"21/10/13","23:40",0.0,19.9,83.1,1015.2,310.9,1.0,1.8,333.5,0.00,17.0,22.8,"23:32:32",1
"21/10/13","23:50",0.0,19.7,83.5,1015.4,279.5,0.8,1.6,332.0,0.00,16.9,22.6,"23:49:36",1
"21/10/13","24:00",0.0,19.6,83.7,1015.4,282.9,0.7,1.3,333.9,0.00,16.8,22.8,"23:50:16",1
